Location: Izdebno
(52.6670°N, 16.2170°E)
Time: 17:25:07
(UTC+02:00)

Transit 4A - Pass Details

Date: 22 February 2024
Orbit: 871 x 972 km, 66.8° (Epoch: 21 April)

Event Time Altitude Azimuth Distance (km) Brightness Sun altitude
Rises 09:51:05 0° 320° (NW) 3,520 10.3 20.5°
Reaches altitude 10° 09:53:37 10° 322° (NW) 2,564 9.7 20.7°
Maximum altitude 09:59:33 79° 48° (NE) 901 8.2 21.2°
Drops below altitude 10° 10:05:23 10° 136° (SE) 2,517 12.1 21.7°
Sets 10:07:50 0° 138° (SE) 3,451 12.3 21.9°
